Tracking 18871 objects as of 13-Dec-2017
HD Live streaming from Space Station
objects crossing your sky now

SL-3 DEB

Track SL-3 DEB now!
10-day predictions


NORAD ID: 14928
Int'l Code: 1983-075F
Perigee: 514.4 km
Apogee: 558.2 km
Inclination: 97.9 °
Period: 95.2 minutes
Semi major axis: 6907 km
RCS: 0.0341 m2 (small)
Launch date: July 24, 1983
Source: Commonwealth of Independent States (former USSR) (CIS)
Launch site: TYURATAM MISSILE AND SPACE COMPLEX (TTMTR)

Note: This is SATELLITE DEBRIS
aabbcc
Your satellite tracking list
Your tracking list is empty




NASA's NSSDC Master Catalog

Two Line Element Set (TLE):
1 14928U 83075F   17346.89743340  .00000331  00000-0  23090-4 0  9991
2 14928  97.9089 142.3988 0031681 330.1985 159.3725 15.12310552847388
Source of the keplerian elements: AFSPC